World > North America > United States > South Carolina

Hourly Walterboro, SC Regional Weather

Feedback E-mail the Weather

Latest News

Walterboro, SC Weather Maps

°F °C°F °C
Walterboro Weather Map
UTC Time: 5/26/2022, 01:28
Your Time:

Walterboro, SC Regional Weather

Expires:202205260200;;585363
ASUS42 KCHS 260127
RWRCHS

Regional Weather Roundup
National Weather Service Charleston SC
900 PM EDT WED MAY 25 2022

NOTE: "fair" indicates few or no clouds below 12,000 feet with no
significant weather and/or obstructions to visibility.

Not all stations are quality controlled. Use data with caution,
especially dewpoint observations.


SCZ027-030-031-034>040-042>050-260200-
...Southeast South Carolina...
  
CITY           SKY/WX    TMP DP  RH WIND       PRES   REMARKS
N Charleston   PTCLDY    75  70  84 E12       30.17R                  
Waterfront Prk   N/A     76  72  87 E9        30.02R                  
Mount Pleasant CLOUDY    75  73  94 CALM      30.17S                  
Johns Island   CLOUDY    75  73  94 E13       30.17S                  
Pinopolis        N/A     75  72  88 E5        30.10S                  
Moncks Corner  FAIR      72  70  94 SE3       30.17S                  
Summerville    FAIR      77  72  83 VRB6      30.16R                  
Beaufort MCAS  MOCLDY    78  73  84 SE8       30.15R                  
Beaufort Arpt  MOCLDY    75  72  88 E7        30.15S                  
Hilton Head Is CLOUDY    77  73  88 E6G13     30.16R                  
Walterboro     CLEAR     73  70  88 SE5       30.17R                  
Allendale      FAIR      77  73  88 SE7       30.12S                  

...Southern Midlands and Pee Dee...
  
CITY           SKY/WX    TMP DP  RH WIND       PRES   REMARKS
Georgetown     FAIR      70  70 100 E6        30.20S                  
Kingstree      CLOUDY    77  66  69 SE6       30.17S                  
Orangeburg     MOCLDY    78  70  76 E6        30.15S                  
Barnwell       FAIR      77  68  73 SE7G14    30.13S                  
Aiken          FAIR      74  68  81 E10       30.15S                  
Manning        CLOUDY    73  68  83 SE3       30.17R                  
Columbia       MOCLDY    76  67  73 E12       30.14S                  
Sumter         CLEAR     73  66  77 NE9       30.16R                  
Florence       MOCLDY    76  66  71 NE6       30.18F                  
Myrtle Beach   CLOUDY    74  70  87 E7        30.21R                  
N Myrtle Beach CLOUDY    73  67  81 E10       30.20R                  

$$
 

SKY/WX - Weather  TMP - Temperature  DP - Dew Point  RH - Humidity
WIND - Wind Direction/Speed PRES - Barometric Pressure VSB - Visibility
WCI - Wind Chill Index E13G22 Wind - East Wind 13 mph/Gusts of 22 mph

Trending Headlines

Walterboro Radar Loop



Walterboro Quick Facts


National Two Day Weather Forecast


E-mail the Walterboro Weather Forecast

Voice your opinion or tell us about page issues...